TimeEDT,TemperatureF,Dew PointF,Humidity,Sea Level PressureIn,VisibilityMPH,Wind Direction,Wind SpeedMPH,Gust SpeedMPH,PrecipitationIn,Events,Conditions,WindDirDegrees,DateUTC
12:15 AM,41.0,30.2,65,29.63,10.0,Calm,Calm,-,N/A,,Scattered Clouds,0,2012-11-03 04:15:00
12:35 AM,39.2,30.2,70,29.63,10.0,Calm,Calm,-,N/A,,Mostly Cloudy,0,2012-11-03 04:35:00
12:55 AM,39.2,30.2,70,29.63,10.0,Calm,Calm,-,N/A,,Scattered Clouds,0,2012-11-03 04:55:00
1:15 AM,39.2,30.2,70,29.63,10.0,Calm,Calm,-,N/A,,Mostly Cloudy,0,2012-11-03 05:15:00
1:35 AM,39.2,30.2,70,29.62,10.0,Calm,Calm,-,N/A,,Mostly Cloudy,0,2012-11-03 05:35:00
2:15 AM,41.0,32.0,70,29.63,10.0,WSW,3.5,-,N/A,,Scattered Clouds,250,2012-11-03 06:15:00
2:35 AM,39.2,32.0,75,29.64,10.0,Calm,Calm,-,N/A,,Scattered Clouds,0,2012-11-03 06:35:00
2:55 AM,42.8,32.0,66,29.64,10.0,Calm,Calm,-,N/A,,Mostly Cloudy,0,2012-11-03 06:55:00
3:15 AM,42.8,32.0,66,29.64,10.0,WNW,4.6,-,N/A,,Overcast,300,2012-11-03 07:15:00
3:35 AM,42.8,32.0,66,29.65,10.0,NW,3.5,-,N/A,,Overcast,320,2012-11-03 07:35:00
3:55 AM,42.8,32.0,66,29.65,10.0,Calm,Calm,-,N/A,,Overcast,0,2012-11-03 07:55:00
4:15 AM,42.8,32.0,66,29.65,10.0,NW,4.6,-,N/A,,Overcast,310,2012-11-03 08:15:00
4:35 AM,42.8,30.2,61,29.65,10.0,NW,3.5,-,N/A,,Overcast,310,2012-11-03 08:35:00
4:56 AM,42.8,32.0,66,29.65,10.0,NNW,3.5,-,N/A,,Overcast,340,2012-11-03 08:56:00
5:15 AM,42.8,30.2,61,29.66,10.0,Calm,Calm,-,N/A,,Overcast,0,2012-11-03 09:15:00
5:35 AM,42.8,30.2,61,29.67,10.0,NNW,6.9,-,N/A,,Overcast,340,2012-11-03 09:35:00
5:55 AM,42.8,30.2,61,29.67,10.0,NNW,3.5,-,N/A,,Overcast,340,2012-11-03 09:55:00
6:15 AM,42.8,30.2,61,29.67,10.0,NW,3.5,-,N/A,,Overcast,310,2012-11-03 10:15:00
6:35 AM,42.8,32.0,66,29.68,10.0,NNW,3.5,-,N/A,,Overcast,330,2012-11-03 10:35:00
6:55 AM,42.8,32.0,66,29.69,10.0,Calm,Calm,-,N/A,,Overcast,0,2012-11-03 10:55:00
7:15 AM,41.0,32.0,70,29.69,10.0,Calm,Calm,-,N/A,,Overcast,0,2012-11-03 11:15:00
7:35 AM,41.0,32.0,70,29.70,10.0,Calm,Calm,-,N/A,,Mostly Cloudy,0,2012-11-03 11:35:00
7:55 AM,41.0,30.2,65,29.71,10.0,WNW,3.5,-,N/A,,Scattered Clouds,300,2012-11-03 11:55:00
8:15 AM,41.0,30.2,65,29.72,10.0,NW,3.5,-,N/A,,Partly Cloudy,320,2012-11-03 12:15:00
8:35 AM,41.0,30.2,65,29.72,10.0,WNW,5.8,-,N/A,,Clear,300,2012-11-03 12:35:00
8:55 AM,42.8,30.2,61,29.73,10.0,NNW,8.1,-,N/A,,Clear,330,2012-11-03 12:55:00
9:15 AM,42.8,30.2,61,29.73,10.0,NW,4.6,-,N/A,,Scattered Clouds,310,2012-11-03 13:15:00
9:35 AM,42.8,30.2,61,29.73,10.0,NW,4.6,-,N/A,,Partly Cloudy,310,2012-11-03 13:35:00
9:55 AM,44.6,32.0,61,29.74,10.0,NNW,9.2,-,N/A,,Mostly Cloudy,330,2012-11-03 13:55:00
10:15 AM,44.6,30.2,57,29.74,10.0,NNW,8.1,-,N/A,,Overcast,330,2012-11-03 14:15:00
10:36 AM,44.6,30.2,57,29.74,10.0,NW,8.1,-,N/A,,Overcast,310,2012-11-03 14:36:00
10:55 AM,44.6,30.2,57,29.74,10.0,NNW,11.5,16.1,N/A,,Overcast,340,2012-11-03 14:55:00
11:15 AM,44.6,30.2,57,29.75,10.0,NNW,4.6,-,N/A,,Overcast,330,2012-11-03 15:15:00
11:35 AM,46.4,30.2,53,29.75,10.0,NNW,11.5,-,N/A,,Overcast,340,2012-11-03 15:35:00
11:55 AM,46.4,30.2,53,29.74,10.0,NNW,11.5,17.3,N/A,,Overcast,340,2012-11-03 15:55:00
12:15 PM,46.4,30.2,53,29.73,10.0,North,12.7,18.4,N/A,,Mostly Cloudy,360,2012-11-03 16:15:00
12:35 PM,46.4,30.2,53,29.74,10.0,NNW,12.7,16.1,N/A,,Scattered Clouds,340,2012-11-03 16:35:00
1:35 PM,46.4,28.4,50,29.74,10.0,NW,11.5,-,N/A,,Overcast,310,2012-11-03 17:35:00
1:55 PM,46.4,28.4,50,29.73,10.0,WNW,10.4,-,N/A,,Overcast,290,2012-11-03 17:55:00
2:15 PM,46.4,28.4,50,29.73,10.0,WNW,11.5,17.3,N/A,,Overcast,300,2012-11-03 18:15:00
2:35 PM,46.4,28.4,50,29.74,10.0,WNW,13.8,18.4,N/A,,Overcast,300,2012-11-03 18:35:00
2:55 PM,46.4,28.4,50,29.73,10.0,NNW,9.2,-,N/A,,Overcast,330,2012-11-03 18:55:00
3:15 PM,46.4,28.4,50,29.74,10.0,NW,9.2,16.1,N/A,,Overcast,310,2012-11-03 19:15:00
3:35 PM,46.4,28.4,50,29.75,10.0,NW,9.2,-,N/A,,Overcast,320,2012-11-03 19:35:00
3:55 PM,46.4,28.4,50,29.75,10.0,NNW,9.2,-,N/A,,Overcast,330,2012-11-03 19:55:00
4:15 PM,46.4,28.4,50,29.75,10.0,WNW,9.2,-,N/A,,Overcast,300,2012-11-03 20:15:00
4:35 PM,44.6,28.4,53,29.76,10.0,NW,9.2,-,N/A,,Overcast,310,2012-11-03 20:35:00
4:55 PM,44.6,28.4,53,29.76,10.0,WNW,8.1,17.3,N/A,,Overcast,300,2012-11-03 20:55:00
5:15 PM,44.6,28.4,53,29.77,10.0,WNW,11.5,16.1,N/A,,Overcast,300,2012-11-03 21:15:00
5:35 PM,44.6,28.4,53,29.77,10.0,WNW,6.9,-,N/A,,Overcast,300,2012-11-03 21:35:00
5:55 PM,44.6,26.6,49,29.77,10.0,West,6.9,-,N/A,,Overcast,280,2012-11-03 21:55:00
6:15 PM,44.6,26.6,49,29.78,10.0,WNW,8.1,-,N/A,,Overcast,290,2012-11-03 22:15:00
6:35 PM,44.6,28.4,53,29.78,10.0,WNW,5.8,-,N/A,,Overcast,290,2012-11-03 22:35:00
6:55 PM,44.6,26.6,49,29.79,10.0,West,4.6,-,N/A,,Overcast,280,2012-11-03 22:55:00
7:15 PM,44.6,28.4,53,29.79,10.0,WNW,8.1,-,N/A,,Overcast,300,2012-11-03 23:15:00
7:35 PM,44.6,26.6,49,29.79,10.0,WNW,8.1,-,N/A,,Overcast,290,2012-11-03 23:35:00
7:55 PM,42.8,28.4,57,29.79,10.0,WNW,4.6,-,N/A,,Overcast,290,2012-11-03 23:55:00
8:15 PM,42.8,28.4,57,29.80,10.0,West,3.5,-,N/A,,Overcast,270,2012-11-04 00:15:00
8:35 PM,42.8,26.6,53,29.80,10.0,WNW,4.6,-,N/A,,Overcast,290,2012-11-04 00:35:00
8:55 PM,42.8,28.4,57,29.81,10.0,WNW,5.8,-,N/A,,Mostly Cloudy,300,2012-11-04 00:55:00
9:35 PM,41.0,26.6,57,29.82,10.0,West,4.6,-,N/A,,Clear,280,2012-11-04 01:35:00
9:55 PM,39.2,26.6,61,29.83,10.0,Calm,Calm,-,N/A,,Clear,0,2012-11-04 01:55:00
10:15 PM,39.2,26.6,61,29.83,10.0,West,3.5,-,N/A,,Mostly Cloudy,260,2012-11-04 02:15:00
10:35 PM,39.2,28.4,65,29.83,10.0,West,3.5,-,N/A,,Overcast,280,2012-11-04 02:35:00
10:55 PM,39.2,28.4,65,29.82,10.0,Calm,Calm,-,N/A,,Overcast,0,2012-11-04 02:55:00
11:15 PM,39.2,28.4,65,29.82,10.0,NNW,5.8,-,N/A,,Overcast,330,2012-11-04 03:15:00
11:35 PM,41.0,28.4,61,29.82,10.0,NNW,5.8,-,N/A,,Overcast,330,2012-11-04 03:35:00
11:55 PM,41.0,28.4,61,29.82,10.0,WNW,8.1,-,N/A,,Overcast,300,2012-11-04 03:55:00